• In Belarus
  • List of Countries
  • For 7 days
  • Water Temperature
  • Satellite Maps
  • Weather Map
  • Weather Widgets
  • user-avatar
    Login

    Hourly Weather Munsingen

    Today, 12 December, Tuesday

    Time Temperature Precipitation Wind Pressure Humidity
    00:00 +3°C° 0.6 mm 3 mps 696 mmHg 91%
    01:00 +3°C° 0 mm 4 mps 697 mmHg 90%
    02:00 +1°C° 0.3 mm 4 mps 699 mmHg 91%
    03:00 +2°C° 0.3 mm 3 mps 700 mmHg 92%
    04:00 +1°C° 0.3 mm 3 mps 701 mmHg 92%
    05:00 +2°C° 0.2 mm 2 mps 702 mmHg 93%
    06:00 +1°C° 0.2 mm 2 mps 703 mmHg 94%
    07:00 +1°C° 0.2 mm 2 mps 704 mmHg 94%
    08:00 +1°C° 0.2 mm 2 mps 705 mmHg 94%
    09:00 +2°C° 0.2 mm 1 mps 706 mmHg 94%
    10:00 +2°C° 0.2 mm 1 mps 707 mmHg 93%
    11:00 +3°C° 0.2 mm 1 mps 707 mmHg 92%
    12:00 +2°C° 0.2 mm 2 mps 708 mmHg 91%
    13:00 +2°C° 0.2 mm 2 mps 709 mmHg 90%
    14:00 +2°C° 0.2 mm 2 mps 709 mmHg 91%
    15:00 +2°C° 0.2 mm 2 mps 710 mmHg 92%
    16:00 +2°C° 0.2 mm 2 mps 710 mmHg 93%
    17:00 +1°C° 0.1 mm 1 mps 711 mmHg 93%
    18:00 0°C° 0.1 mm 1 mps 711 mmHg 94%
    19:00 -1°C° 0.1 mm 1 mps 712 mmHg 94%
    20:00 -1°C° 0 mm 1 mps 713 mmHg 94%
    21:00 -1°C° 0 mm 1 mps 713 mmHg 94%
    22:00 -4°C° 0 mm 2 mps 714 mmHg 93%
    23:00 -4°C° 0 mm 2 mps 714 mmHg 92%

    Tomorrow, 13 December, Wednesday

    Time Temperature Precipitation Wind Pressure Humidity
    00:00 -5°C° 0 mm 2 mps 715 mmHg 91%
    01:00 -6°C° 0 mm 2 mps 715 mmHg 90%
    02:00 -6°C° 0 mm 2 mps 715 mmHg 88%
    03:00 -6°C° 0 mm 2 mps 715 mmHg 85%
    04:00 -6°C° 0 mm 2 mps 715 mmHg 82%
    05:00 -6°C° 0 mm 2 mps 715 mmHg 81%
    06:00 -6°C° 0 mm 2 mps 715 mmHg 80%
    07:00 -6°C° 0 mm 2 mps 715 mmHg 79%
    08:00 -5°C° 0 mm 2 mps 715 mmHg 76%
    09:00 -4°C° 0 mm 2 mps 715 mmHg 74%
    10:00 -2°C° 0 mm 3 mps 714 mmHg 72%
    11:00 0°C° 0 mm 3 mps 714 mmHg 71%
    12:00 +2°C° 0 mm 3 mps 713 mmHg 70%
    13:00 +3°C° 0 mm 3 mps 712 mmHg 70%
    14:00 +3°C° 0.4 mm 3 mps 711 mmHg 74%
    15:00 +3°C° 0.4 mm 3 mps 711 mmHg 78%
    16:00 +2°C° 0.4 mm 3 mps 711 mmHg 82%
    17:00 +3°C° 0.6 mm 3 mps 710 mmHg 84%
    18:00 +3°C° 0.6 mm 3 mps 710 mmHg 85%
    19:00 +3°C° 0.6 mm 3 mps 710 mmHg 86%
    20:00 +3°C° 0.6 mm 4 mps 710 mmHg 87%
    21:00 +3°C° 0.6 mm 4 mps 709 mmHg 88%
    22:00 +4°C° 0.6 mm 4 mps 709 mmHg 89%
    23:00 +4°C° 0.5 mm 4 mps 708 mmHg 90%

    Day after tomorrow, 14 December, Thursday

    Time Temperature Precipitation Wind Pressure Humidity
    00:00 +4°C° 0.5 mm 4 mps 708 mmHg 90%
    01:00 +5°C° 0.5 mm 4 mps 708 mmHg 90%
    02:00 +5°C° 0.5 mm 4 mps 707 mmHg 91%
    03:00 +5°C° 0.5 mm 4 mps 707 mmHg 92%
    04:00 +5°C° 0.5 mm 4 mps 707 mmHg 92%
    05:00 +5°C° 0.6 mm 4 mps 707 mmHg 93%
    06:00 +5°C° 0.6 mm 4 mps 707 mmHg 93%
    07:00 +5°C° 0.6 mm 4 mps 707 mmHg 94%
    08:00 +5°C° 0.6 mm 4 mps 707 mmHg 93%
    09:00 +5°C° 0.6 mm 3 mps 707 mmHg 93%
    10:00 +5°C° 0.6 mm 3 mps 707 mmHg 93%
    11:00 +5°C° 0.4 mm 3 mps 706 mmHg 92%
    12:00 +5°C° 0.4 mm 4 mps 706 mmHg 91%
    13:00 +5°C° 0.4 mm 4 mps 705 mmHg 89%
    14:00 +5°C° 0.3 mm 4 mps 705 mmHg 89%
    15:00 +5°C° 0.3 mm 4 mps 704 mmHg 90%
    16:00 +5°C° 0.3 mm 4 mps 703 mmHg 90%
    17:00 +5°C° 0.4 mm 5 mps 703 mmHg 89%
    18:00 +5°C° 0.4 mm 5 mps 702 mmHg 89%
    19:00 +5°C° 0.4 mm 5 mps 702 mmHg 89%
    20:00 +4°C° 0.9 mm 6 mps 702 mmHg 88%
    21:00 +4°C° 0.9 mm 6 mps 702 mmHg 87%
    22:00 +4°C° 0.9 mm 7 mps 702 mmHg 87%
    23:00 +3°C° 1.9 mm 5 mps 702 mmHg 89%

    15 December, Friday

    Time Temperature Precipitation Wind Pressure Humidity
    00:00 +3°C° 1.9 mm 4 mps 702 mmHg 91%
    01:00 +3°C° 1.9 mm 3 mps 702 mmHg 94%
    02:00 +2°C° 1.3 mm 3 mps 702 mmHg 93%
    03:00 +2°C° 1.3 mm 3 mps 702 mmHg 93%
    04:00 +3°C° 1.3 mm 2 mps 702 mmHg 93%
    05:00 +2°C° 0.6 mm 2 mps 702 mmHg 92%
    06:00 +1°C° 0.6 mm 3 mps 702 mmHg 92%
    07:00 0°C° 0.6 mm 3 mps 702 mmHg 92%
    08:00 0°C° 0.1 mm 3 mps 703 mmHg 90%
    09:00 +1°C° 0.1 mm 3 mps 703 mmHg 89%
    10:00 0°C° 0.1 mm 4 mps 703 mmHg 88%
    11:00 0°C° 0.1 mm 4 mps 703 mmHg 86%
    12:00 +1°C° 0.1 mm 4 mps 702 mmHg 84%
    13:00 +1°C° 0.1 mm 4 mps 702 mmHg 82%
    14:00 +1°C° 0.4 mm 4 mps 702 mmHg 85%
    15:00 0°C° 0.4 mm 4 mps 703 mmHg 87%
    16:00 0°C° 0.4 mm 4 mps 703 mmHg 90%
    17:00 -1°C° 0.4 mm 4 mps 703 mmHg 91%
    18:00 0°C° 0.4 mm 3 mps 704 mmHg 92%
    19:00 -1°C° 0.4 mm 3 mps 704 mmHg 93%
    20:00 -1°C° 0.5 mm 3 mps 705 mmHg 93%
    21:00 -1°C° 0.5 mm 3 mps 705 mmHg 93%
    22:00 -1°C° 0.5 mm 3 mps 706 mmHg 93%
    23:00 -1°C° 0.6 mm 3 mps 706 mmHg 93%

    16 December, Saturday

    Time Temperature Precipitation Wind Pressure Humidity
    00:00 -1°C° 0.6 mm 3 mps 707 mmHg 93%
    01:00 -1°C° 0.6 mm 3 mps 707 mmHg 93%
    02:00 -1°C° 0.3 mm 3 mps 708 mmHg 93%
    03:00 -1°C° 0.3 mm 3 mps 708 mmHg 94%
    04:00 -2°C° 0.3 mm 2 mps 709 mmHg 94%
    05:00 -2°C° 0.1 mm 2 mps 709 mmHg 94%
    06:00 -3°C° 0.1 mm 2 mps 710 mmHg 94%
    07:00 -3°C° 0.1 mm 2 mps 710 mmHg 94%
    08:00 -3°C° 0 mm 2 mps 711 mmHg 92%
    09:00 -3°C° 0 mm 2 mps 711 mmHg 90%
    10:00 -3°C° 0 mm 2 mps 712 mmHg 88%
    11:00 -2°C° 0 mm 2 mps 712 mmHg 85%
    12:00 -1°C° 0 mm 3 mps 712 mmHg 82%
    13:00 0°C° 0 mm 3 mps 711 mmHg 79%
    14:00 -1°C° 0 mm 2 mps 711 mmHg 81%
    15:00 -1°C° 0 mm 2 mps 711 mmHg 84%
    16:00 -2°C° 0 mm 2 mps 711 mmHg 87%
    17:00 -3°C° 0 mm 2 mps 712 mmHg 86%
    18:00 -3°C° 0 mm 2 mps 712 mmHg 85%
    19:00 -4°C° 0 mm 2 mps 713 mmHg 84%
    20:00 -4°C° 0.1 mm 2 mps 713 mmHg 85%
    21:00 -4°C° 0.1 mm 2 mps 713 mmHg 85%
    22:00 -4°C° 0.1 mm 2 mps 714 mmHg 86%
    23:00 -4°C° 0.1 mm 2 mps 714 mmHg 87%

    17 December, Sunday

    Time Temperature Precipitation Wind Pressure Humidity
    00:00 -4°C° 0.1 mm 2 mps 714 mmHg 88%
    01:00 -4°C° 0.1 mm 2 mps 714 mmHg 89%
    02:00 -4°C° 0.2 mm 2 mps 714 mmHg 89%
    03:00 -4°C° 0.2 mm 2 mps 715 mmHg 90%
    04:00 -4°C° 0.2 mm 2 mps 715 mmHg 91%
    05:00 -4°C° 0.3 mm 2 mps 715 mmHg 91%
    06:00 -2°C° 0.3 mm 1 mps 716 mmHg 92%
    07:00 -2°C° 0.3 mm 1 mps 716 mmHg 93%
    08:00 -1°C° 0.1 mm 1 mps 716 mmHg 92%
    09:00 -1°C° 0.1 mm 1 mps 717 mmHg 91%
    10:00 0°C° 0.1 mm 1 mps 717 mmHg 90%
    11:00 0°C° 0 mm 1 mps 717 mmHg 89%
    12:00 +1°C° 0 mm 1 mps 717 mmHg 87%
    13:00 +1°C° 0 mm 1 mps 717 mmHg 86%
    14:00 +1°C° 0 mm 1 mps 717 mmHg 88%
    15:00 0°C° 0 mm 1 mps 717 mmHg 89%
    16:00 0°C° 0 mm 1 mps 718 mmHg 91%
    17:00 -2°C° 0 mm 1 mps 718 mmHg 92%
    18:00 -3°C° 0 mm 1 mps 719 mmHg 93%
    19:00 -4°C° 0 mm 1 mps 719 mmHg 93%
    20:00 -6°C° 0 mm 1 mps 719 mmHg 91%
    21:00 -6°C° 0 mm 1 mps 720 mmHg 89%
    22:00 -7°C° 0 mm 1 mps 720 mmHg 86%
    23:00 -7°C° 0 mm 1 mps 720 mmHg 84%
    Show more